Cardiff-Wales, United Kingdom

8:48 AM BST on October 16, 2019 (GMT +0100)
Cardiff

Weather History for EGFF - September, 2019

Change the Weather History Date:

Tuesday, September 17, 2019

  Actual Average Record
Temperature  
Mean Temperature 58 °F -  
Max Temperature 64 °F 60 °F 77 °F (2003)
Min Temperature 51 °F 49 °F 41 °F (2005)
Degree Days  
Heating Degree Days 8    
Growing Degree Days 8 (Base 50)    
Moisture  
Dew Point 49 °F    
Average Humidity 74    
Maximum Humidity 88    
Minimum Humidity 52    
Precipitation  
Precipitation 0.00 in 0.12 in - ()
Sea Level Pressure  
Sea Level Pressure 30.30 in    
Wind  
Wind Speed 8 mph ()    
Max Wind Speed 12 mph    
Max Gust Speed 21 mph    
Visibility 6.2 miles    
Events      
Averages and records for this station are not official NWS values.
T = Trace of Precipitation, MM = Missing Value Source: Averaged Metar Reports

Daily Weather History Graph

Daily Weather History Graph

Search for Another Location

Airport or City:

Astronomy

Sep. 17, 2019 Rise Set
Actual Time 6:50 AM BST 7:24 PM BST
Civil Twilight 6:17 AM BST 7:57 PM BST
Nautical Twilight 5:37 AM BST 8:37 PM BST
Astronomical Twilight 4:55 AM BST 9:19 PM BST
Moon 9:01 PM BST (9/17) 9:57 AM BST (9/17)
Length of Visible Light 13h 40m
Length of Day
12h 33m
Waning Gibbous, 90% of the Moon is Illuminated
Sep 17
Waning Gibbous
Sep 22
Last Quarter
Sep 28
New
Oct 5
First Quarter
Oct 13
Full

Hourly Weather History & Observations

Time (BST) Temp. Dew Point Humidity Pressure Visibility Wind Dir Wind Speed Gust Speed Precip Events Conditions
12:20 AM 57.2 °F 53.6 °F 88% 30.24 in 6.2 mi ENE 11.5 mph - N/A   Overcast
12:50 AM 57.2 °F 53.6 °F 88% 30.24 in 6.2 mi ENE 11.5 mph - N/A   Overcast
1:20 AM 55.4 °F 51.8 °F 88% 30.24 in 6.2 mi ENE 10.4 mph - N/A   Overcast
1:50 AM 55.4 °F 51.8 °F 88% 30.24 in 6.2 mi ENE 10.4 mph - N/A   Overcast
2:20 AM 55.4 °F 50.0 °F 82% 30.27 in 6.2 mi ENE 10.4 mph - N/A   Overcast
2:50 AM 55.4 °F 50.0 °F 82% 30.24 in 6.2 mi ENE 9.2 mph - N/A   Overcast
3:20 AM 53.6 °F 50.0 °F 88% 30.24 in 6.2 mi ENE 9.2 mph - N/A   Overcast
3:50 AM 53.6 °F 50.0 °F 88% 30.24 in 6.2 mi ENE 9.2 mph - N/A   Overcast
4:20 AM 53.6 °F 50.0 °F 88% 30.27 in 6.2 mi ENE 6.9 mph - N/A   Overcast
4:50 AM 53.6 °F 50.0 °F 88% 30.27 in 6.2 mi ENE 9.2 mph - N/A   Overcast
5:20 AM 55.4 °F 48.2 °F 77% 30.27 in 6.2 mi NE 11.5 mph - N/A   Overcast
5:50 AM 55.4 °F 48.2 °F 77% 30.27 in 6.2 mi ENE 11.5 mph - N/A   Overcast
6:20 AM 55.4 °F 48.2 °F 77% 30.27 in 6.2 mi NE 9.2 mph - N/A   Mostly Cloudy
6:50 AM 53.6 °F 48.2 °F 82% 30.27 in 6.2 mi NE 6.9 mph - N/A   Mostly Cloudy
7:20 AM 53.6 °F 48.2 °F 82% 30.30 in 6.2 mi NE 6.9 mph - N/A   Mostly Cloudy
7:50 AM 53.6 °F 48.2 °F 82% 30.30 in 6.2 mi NE 5.8 mph - N/A   Overcast
8:20 AM 53.6 °F 48.2 °F 82% 30.30 in 6.2 mi NNE 6.9 mph - N/A   Scattered Clouds
8:50 AM 55.4 °F 48.2 °F 77% 30.30 in 6.2 mi NNE 6.9 mph 20.7 mph N/A   Mostly Cloudy
9:20 AM 57.2 °F 48.2 °F 72% 30.33 in 6.2 mi NNE 6.9 mph - N/A   Mostly Cloudy
9:50 AM 57.2 °F 48.2 °F 72% 30.33 in 6.2 mi NE 8.1 mph - N/A   Mostly Cloudy
10:20 AM 59.0 °F 48.2 °F 67% 30.33 in 6.2 mi NE 9.2 mph - N/A   Scattered Clouds
10:50 AM 59.0 °F 48.2 °F 67% 30.33 in 6.2 mi NE 9.2 mph - N/A   Mostly Cloudy
11:20 AM 59.0 °F 48.2 °F 67% 30.33 in 6.2 mi NE 6.9 mph - N/A   Scattered Clouds
11:50 AM 60.8 °F 48.2 °F 63% 30.33 in 6.2 mi NNE 6.9 mph - N/A   Scattered Clouds
12:20 PM 60.8 °F 48.2 °F 63% 30.33 in 6.2 mi NNW 6.9 mph - N/A   Partly Cloudy
12:50 PM 62.6 °F 46.4 °F 55% 30.30 in 6.2 mi NE 4.6 mph - N/A   Partly Cloudy
1:20 PM 64.4 °F 46.4 °F 52% 30.30 in 6.2 mi NNW 6.9 mph - N/A   Unknown
1:50 PM 64.4 °F 48.2 °F 56% 30.30 in 6.2 mi ESE 5.8 mph - N/A   Scattered Clouds
2:20 PM 64.4 °F 50.0 °F 59% 30.30 in 6.2 mi NE 4.6 mph - N/A   Partly Cloudy
2:50 PM 62.6 °F 50.0 °F 63% 30.30 in 6.2 mi West 9.2 mph - N/A   Unknown
3:20 PM 62.6 °F 50.0 °F 63% 30.30 in 6.2 mi WSW 9.2 mph - N/A   Partly Cloudy
3:50 PM 62.6 °F 50.0 °F 63% 30.30 in 6.2 mi WSW 5.8 mph - N/A   Partly Cloudy
4:20 PM 62.6 °F 50.0 °F 63% 30.30 in 6.2 mi WSW 8.1 mph - N/A   Unknown
4:50 PM 62.6 °F 50.0 °F 63% 30.30 in 6.2 mi WSW 5.8 mph - N/A   Unknown
5:20 PM 62.6 °F 50.0 °F 63% 30.30 in 6.2 mi SW 5.8 mph - N/A   Unknown
5:50 PM 62.6 °F 50.0 °F 63% 30.30 in 6.2 mi West 4.6 mph - N/A   Unknown
6:20 PM 60.8 °F 50.0 °F 68% 30.30 in 6.2 mi WNW 4.6 mph - N/A   Unknown
6:50 PM 59.0 °F 50.0 °F 72% 30.30 in 6.2 mi WNW 3.5 mph - N/A   Unknown
7:20 PM 59.0 °F 50.0 °F 72% 30.30 in 6.2 mi Variable 3.5 mph - N/A   Unknown
7:50 PM 57.2 °F 50.0 °F 77% 30.30 in 6.2 mi NNE 5.8 mph - N/A   Unknown
8:20 PM 55.4 °F 46.4 °F 72% 30.33 in 6.2 mi NNE 6.9 mph - N/A   Unknown
8:50 PM 55.4 °F 46.4 °F 72% 30.33 in 6.2 mi NNE 6.9 mph - N/A   Unknown
9:20 PM 53.6 °F 46.4 °F 77% 30.33 in 6.2 mi NNE 6.9 mph - N/A   Unknown
9:50 PM 53.6 °F 46.4 °F 77% 30.33 in 6.2 mi NNE 6.9 mph - N/A   Unknown
10:20 PM 51.8 °F 46.4 °F 82% 30.36 in 6.2 mi NNE 8.1 mph - N/A   Unknown
10:50 PM 51.8 °F 46.4 °F 82% 30.36 in 6.2 mi NNE 8.1 mph - N/A   Unknown
11:50 PM 51.8 °F 46.4 °F 82% 30.36 in 6.2 mi NE 8.1 mph - N/A   Unknown